Location: ????????
(60.5616°N, 46.8254°E)
Time: 07:19:24
(UTC+00:00)

ERS-1 Rocket - Pass Details

Date: 18 February 2020
Orbit: 752 x 758 km, 98.5° (Epoch: 30 March)

Event Time Altitude Azimuth Distance (km) Brightness Sun altitude
Exits shadow 18:15:40 46° 327° (NNW) 1,025 3.9 -31.9°
Drops below altitude 10° 18:19:14 10° 340° (NNW) 2,305 6.1 -32.3°
Sets 18:21:33 0° 342° (NNW) 3,235 7.0 -32.5°
